Regional Weather Roundup
Issued by NWS Mt. Holly, NJ

Home | Current Version | Previous Version | Text Only | Print | Product List | Glossary On
Versions: 1 2 3 4 5 6 7 8 9 10 11 12 13 14 15 16 17 18 19 20 21 22 23 24 25 26 27 28 29 30 31 32 33 34 35 36 37 38 39 40 41 42 43 44 45 46 47 48 49 50
000
ASUS41 KPHI 040011
RWRPHI

REGIONAL WEATHER ROUNDUP
NATIONAL WEATHER SERVICE MOUNT HOLLY NJ
700 PM EST TUE MAR 03 2015

NOTE:  "FAIR" INDICATES FEW OR NO CLOUDS BELOW 12,000 FEET WITH NO
SIGNIFICANT WEATHER AND/OR OBSTRUCTIONS TO VISIBILITY.

 * = STATION DOES NOT REPORT PRECIPITATION (E.G. RAIN, SNOW, ETC.)
        OR FOG.

NJZ015>026-040100-
SOUTHERN NEW JERSEY

CITY           SKY/WX    TMP DP  RH WIND       PRES   REMARKS
POMONA         CLOUDY    32  31  96 CALM      30.11F FOG
6HR MIN TEMP:  30; 6HR MAX TEMP:  33; 6HR PCP:  0.19;

RIO GRANDE*    CLOUDY    34  28  80 CALM      30.10F
MILLVILLE      MIX PCPN  32  31  96 SE5       30.08F FOG     WCI  27
WRIGHTSTOWN    FRZ RAIN  32  31  99 S3        30.06F
MOUNT HOLLY    FRZ RAIN  32  30  92 VRB5      30.09F FOG     WCI  27
TRENTON        FRZ RAIN  30  27  88 SE12      30.07F WCI  20
6HR MIN TEMP:  28; 6HR MAX TEMP:  32;


$$
NJZ001>014-040100-
NORTHERN NEW JERSEY

CITY           SKY/WX    TMP DP  RH WIND       PRES   REMARKS
SUSSEX         MIX PCPN  26  22  84 SW7       30.00F FOG     WCI  18
ANDOVER*         N/A     25  22  88 VRB6      30.00F WCI  18
MORRISTOWN     LGT SNOW  28  25  86 S7        30.08F WCI  21
NEWARK         SLEET     29  27  92 S6        30.11F FOG     WCI  23
TETERBORO      FRZ RAIN  28  27  93 S9        30.08F WCI  20
CALDWELL       MIX PCPN  28  23  81 S7        30.08F WCI  21
SOMERVILLE     MIX PCPN  28  25  88 SE5       30.06F FOG     WCI  23
ALLAIRE*       CLOUDY    30  27  86 CALM      30.11F
TOMS RIVER*    CLOUDY    32  30  93 CALM      30.13F

$$
PAZ043-044-047-054-055-060>062-066>071-040100-
EASTERN PENNSYLVANIA

CITY           SKY/WX    TMP DP  RH WIND       PRES   REMARKS
PHILADELPHIA   FRZ RAIN  32  29  88 SE7       30.10F FOG     WCI  26
6HR MIN TEMP:  30; 6HR MAX TEMP:  34; 6HR PCP:  0.37;

NORTH PHILA    FRZ RAIN  32  28  85 S7        30.10F FOG     WCI  26
BLUE BELL      CLOUDY    32  32 100 SE6       30.05F WCI  26
DOYLESTOWN     FRZ RAIN  27  27 100 SE8       30.02F FOG     WCI  19
QUAKERTOWN*    CLOUDY    27  25  93 S3        30.03F
POTTSTOWN      FRZ RAIN  28  28 100 VRB5      30.04F FOG     WCI  23
LANCASTER      CLOUDY    28  26  92 S7        30.01S FOG     WCI  21
COATESVILLE    LGT SNOW  30  30 100 S9        30.01F WCI  22
READING        FRZ RAIN  27  24  89 SE7       30.02F WCI  19
6HR MIN TEMP:  26; 6HR MAX TEMP:  28;

ALLENTOWN      SLEET     27  23  85 S7        30.02F FOG     WCI  19
6HR MIN TEMP:  25; 6HR MAX TEMP:  27; 6HR PCP:  0.38;

MOUNT POCONO   LGT SNOW  21  17  84 S15       29.88F VSB 3/4 WCI   8
6HR MIN TEMP:  17; 6HR MAX TEMP:  21; 6HR PCP:  0.18;

HAZLETON       LGT SNOW  25  21  86 SE8       29.92F WCI  16
WILKES BARRE   MIX PCPN  26  19  74 SW8       29.90F WCI  18

$$
DEZALL-MDZ008-012-015-019-020-040100-
DELAWARE AND EASTERN MARYLAND

CITY           SKY/WX    TMP DP  RH WIND       PRES   REMARKS
WILMINGTON     FRZ RAIN  31  29  92 S14       30.09F FOG     WCI  21
6HR MIN TEMP:  29; 6HR MAX TEMP:  31; 6HR PCP:  0.27;

DOVER          FRZ RAIN  31  31 100 SE1       30.10F
GEORGETOWN     MIX PCPN  32  30  92 S6        30.10F FOG     WCI  26
6HR MIN TEMP:  32; 6HR MAX TEMP:  35; 6HR PCP:  0.11;

EASTON         LGT RAIN  34  34 100 SW7       30.15F WCI  28
ABERDEEN       FRZ RAIN  30  28  93 S7        30.07F FOG     WCI  23
PATUXENT       LGT RAIN  33  27  78 S5        30.11F WCI  29
OCEAN CITY     LGT RAIN  33  32  96 CALM      30.11F FOG
WALLOPS ISLAND CLOUDY    35  33  92 SW5       30.11F WCI  31
CAMBRIDGE      CLOUDY    34  32  93 S7        30.10F WCI  28
SALISBURY      LGT RAIN  35  32  88 S3        30.10F FOG

$$
PAZ001-021-NYZ056-072-MDZ011-DCZ001-040100-
OTHER NEARBY LOCATIONS

CITY           SKY/WX    TMP DP  RH WIND       PRES   REMARKS
HARRISBURG     CLOUDY    30  25  81 SE14      29.99F WCI  19
STATE COLLEGE  SLEET     27  23  86 S9        29.84F FOG     WCI  17
WILLIAMSPORT   SLEET     26  20  77 E10G20    29.91F WCI  16
BINGHAMTON     LGT SNOW  20  17  88 S18G28    29.76F FOG     WCI   5
NEW YORK CITY  MIX PCPN  32  27  81 S9        30.10F WCI  24
BALTIMORE      FRZ RAIN  30  27  88 S7        30.06F FOG     WCI  23
WASHINGTON DC  LGT RAIN  34  25  69 S12       30.06F WCI  25

$$


USA.gov is the U.S. government's official web portal to all federal, state and local government web resources and services.